Location: Sungai Igah
(2.7333°N, 114.2500°E)
Time: 11:31:37
(UTC+00:00)

Meteor 2-6 Rocket - Pass Details

Date: 14 June 2021
Orbit: 805 x 916 km, 81.3° (Epoch: 04 August)

Event Time Altitude Azimuth Distance (km) Brightness Sun altitude
Rises 20:41:11 0° 355° (N) 3,480 7.7 -22.1°
Reaches altitude 10° 20:43:39 10° 355° (N) 2,527 6.9 -21.6°
Maximum altitude 20:49:24 89° 75° (ENE) 864 4.2 -20.3°
Drops below altitude 10° 20:55:00 10° 175° (S) 2,459 6.4 -19.1°
Sets 20:57:23 0° 175° (S) 3,379 7.1 -18.5°
